Flag for China Weather past 2 weeks in Dalian, Liaoning, China

21 °F

Partly sunny.

Feels Like: 8 °F
Forecast: 19 / 23 °F
Wind: 15 mph from North

Location: Dalian Airport

Current Time: Nov 25, 2015 at 4:19:20 PM

Latest Report: Nov 25, 2015 at 3:30 PM

Visibility: N/A

Pressure: 30.24 "Hg

Humidity: 68%

Dew point: 12 °F

Location of DalianLocation

Historic Weather in Dalian — Graph


Dalian temperature yesterday

Maximum temperature yesterday: 19 °F (at 3:30 PM)
Minimum temperature yesterday: 14 °F (at 7:00 AM)
Average temperature yesterday: 17 °F

Past Weeks' High & Low Weather Summary

High57 °F (Nov 14, 11:00 AM)100% (Nov 13, 11:30 PM)30.69 "Hg (Nov 13, 11:30 PM)
Low14 °F (Nov 24, 7:00 AM)39% (Nov 17, 11:00 AM)29.98 "Hg (Nov 14, 5:00 AM)
Average36 °F75%30.32 "Hg
* Reported Nov 10 2:00 PM — Nov 25 2:30 PM, Dalian, Weather by CustomWeather, © 2015

Note: Actual official high and low records may vary slightly from our data, if they occured in-between our weather recording intervals... More about our weather records


Dalian weather history for previous 24 hours

Time TempWeatherWind HumidityBarometerVisibility
2:30 PM
Wed, Nov 25
23 °FPartly sunny.17 mph68%30.24 "HgN/A
2:00 PM21 °FPartly sunny.17 mph68%30.24 "HgN/A
1:30 PM21 °FScattered clouds.20 mph68%30.27 "HgN/A
1:00 PM23 °FScattered clouds.17 mph68%30.27 "HgN/A
12:30 PM23 °FScattered clouds.20 mph68%30.27 "HgN/A
12:00 PM23 °FScattered clouds.20 mph63%30.27 "HgN/A
11:30 AM21 °FScattered clouds.15 mph74%30.30 "HgN/A
11:00 AM21 °FScattered clouds.15 mph74%30.30 "HgN/A
10:30 AM21 °FScattered clouds.15 mph68%30.33 "HgN/A
10:00 AM21 °FScattered clouds.13 mph68%30.33 "HgN/A
9:30 AM21 °FScattered clouds.13 mph68%30.33 "HgN/A
9:00 AM19 °FScattered clouds.13 mph73%30.33 "HgN/A
8:00 AM19 °FPartly sunny.15 mph73%30.33 "HgN/A
7:30 AM19 °FBroken clouds.13 mph73%30.33 "HgN/A
7:00 AM19 °FBroken clouds.13 mph73%30.33 "HgN/A
6:30 AM19 °FPartly cloudy.13 mph73%30.33 "HgN/A
6:00 AM19 °FPassing clouds.13 mph73%30.33 "HgN/A
5:30 AM21 °FPassing clouds.13 mph74%30.33 "HgN/A
5:00 AM21 °FPassing clouds.13 mph74%30.33 "HgN/A
4:30 AM21 °FPassing clouds.13 mph74%30.36 "HgN/A
4:00 AM19 °FPassing clouds.13 mph79%30.36 "HgN/A
3:30 AM21 °FPassing clouds.15 mph74%30.36 "HgN/A
3:00 AM19 °FPassing clouds.10 mph73%30.36 "HgN/A
2:30 AM19 °FPassing clouds.8 mph79%30.39 "HgN/A
2:00 AM19 °FPassing clouds.10 mph73%30.39 "HgN/A
1:30 AM19 °FPassing clouds.13 mph73%30.39 "HgN/A
1:00 AM19 °FPassing clouds.13 mph73%30.39 "HgN/A
12:30 AM19 °FPassing clouds.13 mph73%30.42 "HgN/A
12:00 AM19 °FPassing clouds.10 mph73%30.42 "HgN/A
11:30 PM
Tue, Nov 24
19 °FPassing clouds.13 mph73%30.42 "HgN/A
11:00 PM19 °FPassing clouds.13 mph73%30.42 "HgN/A
10:30 PM19 °FPassing clouds.10 mph73%30.45 "HgN/A
10:00 PM19 °FPassing clouds.13 mph73%30.48 "HgN/A
9:30 PM19 °FPassing clouds.10 mph73%30.45 "HgN/A
9:00 PM19 °FPassing clouds.10 mph73%30.48 "HgN/A
8:30 PM19 °FPassing clouds.10 mph73%30.48 "HgN/A
8:00 PM19 °FPassing clouds.13 mph73%30.48 "HgN/A
7:30 PM19 °FPassing clouds.10 mph73%30.48 "HgN/A
7:00 PM19 °FPassing clouds.13 mph73%30.51 "HgN/A
6:30 PM19 °FPassing clouds.13 mph68%30.51 "HgN/A
6:00 PM19 °FPassing clouds.13 mph68%30.51 "HgN/A
5:30 PM19 °FPassing clouds.15 mph68%30.51 "HgN/A
5:00 PM19 °FPassing clouds.13 mph68%30.51 "HgN/A
4:30 PM19 °FScattered clouds.10 mph68%30.51 "HgN/A
4:00 PM19 °FScattered clouds.13 mph63%30.51 "HgN/A
Weather by CustomWeather, © 2015

See weather overviewHow to use our weather pages